STARLINK-11282, 60992

Orbit data source: Space-Track

STARLINK-11282, 60992 is a payload satellite owned by SpaceX/Seattle (US) in LEO that was launched on Thu, 05 Sep 2024 UTC via an FALCON 9 launch vehicle from the Air Force Eastern Test Range (AFETR). Payloads include a variety of satellites, spacecraft, and rockets equipped with specific instruments for various scientific and technological missions. These include communications satellites like Starlink; space stations such as the ISS; scientific satellites like the Hubble; Earth observation satellites from companies like Planet Labs, Umbra, and HawkEye 360; GPS; miniature CubeSats for education and research; and military/defense satellites.

Loading next visibility...
STARLINK-11282 details
Identifier
60992, 2024-158C
Orbit
LEO
Last TLE update15 hours ago
Origin
Flag of USSpaceX/Seattle (US)
ManufacturerSpaceX/Seattle
MissionOperational spacecraft
Bus & MotorSTARLINK V2M, Unknown motor
Mass730 kg wet, ~700 kg dry
Launch date (UTC)
2024-09-05 (4 months ago)
Launch vehicle
FALCON 9
Launch site
Air Force Eastern Test Range (AFETR)
Object type
Payload
Rocket body
Debris
Shape & HBRUnknown
Radar Cross SectionLarge (>1 m²)

Expand to show TLE details & history

TLE from 15 hours ago
0 STARLINK-11282
1 60992U 24158C   24355.90458528 -.00000900  00000-0 -25730-5 0  9999
2 60992  53.1613 308.9319 0000999  94.3321 265.7811 15.69698506 17899
Epoch: 2024-12-20T21:42Z
Definitive object data (Epoch: 2024-12-20T21:42:36.168Z)
Latitude-0.00001°
Longitude-106.68221°
Altitude360.724 km
Speed7.694 km/s
True Right ascension20h 35m 43s
True Declination0° 00' 00"
Sunlit
Object was in daylight at TLE epoch
Visualization TLE readout
Latitude-53.08888°
Longitude152.91314°
Altitude378.861 km
Speed7.682 km/s
Apparent Right ascension19h 52m 46s
Apparent Declination-73° 44' 38"
Sunlit
Object is in daylight
Visualization observer readout
Local Sidereal Time11:37:11
Azimuth159.935° S
Elevation-47.37°
Doppler factor1
Orbital elements
Apogee altitude360.693 km
Perigee altitude359.347 km
Semi-major axis6,738.157 km
Eccentricity0.0000999
Inclination53.1613°
RAAN308.9319°
Arg. of periapsis94.3321°
True anomaly265.76968°
Mean anomaly265.7811°
Eccentric anomaly265.77539°
Mean motion3.92402 °/min
BSTAR-0.000002573
Orbital period91.74 mins
Loading maneuver chart data...
Loading historical data...
Loading historical data...
Loading historical data...
Loading historical data...
Loading historical data...
Loading historical data...
Loading historical data...

STARLINK-11282 Visibility forecast

Observer location: undefined°, undefined

Span
Click to sort rows by Start time (UTC) header in descending order
Start Az.
Max El. time (UTC)
Max El. Az.
Max El.
End time (UTC)
End Az.
5 mins2024-12-21 23:52:22.014Z236.98° WSW2024-12-21 23:55:22.014Z358.067° N42.057°2024-12-21 23:57:22.014Z43.769° NE
4 mins2024-12-22 06:18:22.014Z319.769° NNW2024-12-22 06:20:22.014Z98.062° ESE38.981°2024-12-22 06:22:22.014Z122.563° SE
|